Find Starlink 1924

NORAD ID: 46755 Int'l Des: 2020-074 Owner: SPXS Country: US Constellation: starlink decayed
LEOCIRCULAR
Vis

Historical Track — 15. Juli 2025

3D-Globus wird geladen...

Über Starlink 1924

Beschreibung wird geladen...

Höhenverlauf

Loading altitude history...

Zweizeiliger Elementsatz

1 46755U 20074S 25196.21897220 .11392517 12494-4 61470-3 0 9998
2 46755 53.0267 261.5072 0008635 302.2306 168.7790 16.41959269261541
Epoch: 15. Juli 2025 • Age: 7102 hours

Aktueller Status

Position data unavailable
Startdatum 24. Okt. 2020
Alter 5.5 years
Verglühungsdatum 15. Juli 2025
Typ internet

Technische Details

Klassifizierung Payload
Masse 260.00 kg
Trockenmasse 248.00 kg
Gesamtmasse 260.00 kg
Länge 0.20 m
Durchmesser 2.80 m
Spannweite 9.00 m
Form Box + pan
Hersteller SPXS
Bus-Typ Starlink
Phasenstatus Unknown Transfer Status
Besitzer/Staat SPXS/US

Most Searched